Content
SEND FEEDBACK

Daily
Averages
Monthly
Summary
French Polynesia

PAPEETE, FRENCH POLYNESIA


Home > Oceania > French Polynesia
Elevation: 2 meters     Latitude: 17 33S     Longitude: 149 36W

WEATHER
 
SELECT A DAY
Number of Records: 208,245;   Date Range: 6/30/96 - 7/28/14
 
SHARE

PRINT THIS DATA

[ ← Previous Day ]
WEATHER ALMANAC - 5 MARCH, 2013
[ Next Day → ]
[ °F ]   °C
Weather ElementAverageHighLow
Temperature27.6 °C31 °C (12:30 pm)23 °C (2:00 am)
Dewpoint20.8 °C24 °C (4:30 pm)17 °C (1:00 am)
Humidity66 %83 % (3:00 am)50 % (8:00 am)
Barometer1014.6 hPa1016.3 hPa (7:30 am)1012.2 hPa (2:30 pm)
Wind Speed9 km/h32.3 km/h (2:00 pm)
Weather ElementAverage
Visibility13.5 km
Wind DirectionS (182.4 °)

Weather ElementTotal
Precipitation---
Cooling Degree Days8.7 (Base 18.3)
Growing Degree Days17 (Base 10)
Averaged from 54 records on 5 March, 2013
WEATHER CONDITIONS BREAKOUT
WIND DIRECTION BREAKOUT
WEATHER BY HOUR - 5 MARCH, 2013
[ °F ]   °C
Local TimeTemperatureDewpointHumidityBarometerVisibilityWind DirectionWind SpeedGust SpeedPrecipitationEventsConditions
1:00 AM24 °C17 °C65 %1015.2 hPa10 kmEast (90°)7.4 km/hMostly Cloudy
1:30 AM24 °C17 °C65 %1014.2 hPa10 kmESE (110°)5.6 km/hScattered Clouds
2:00 AM23.3 °C18.3 °C67 %1014.9 hPa19.3 kmSE (130°)5.6 km/hScattered Clouds
2:00 AM23 °C18 °C73 %1014.2 hPa10 kmSE (130°)5.6 km/hScattered Clouds
2:30 AM23 °C19 °C78 %1014.2 hPa10 kmVariable5.6 km/hScattered Clouds
3:00 AM23 °C20 °C83 %1014.2 hPa10 kmSE (130°)5.6 km/hPartly Cloudy
3:30 AM23 °C20 °C83 %1014.2 hPa10 kmSouth (170°)5.6 km/h
4:00 AM23 °C19 °C78 %1014.2 hPa10 kmSSW (200°)11.1 km/h
4:30 AM24 °C19 °C73 %1014.2 hPa10 kmSouth (170°)11.1 km/h
5:00 AM24.4 °C18.3 °C62 %1014.9 hPa59.5 kmSouth (170°)28.8 km/hClear
5:00 AM24 °C19 °C73 %1014.2 hPa10 kmSouth (170°)14.8 km/h
5:30 AM24 °C18 °C69 %1015.2 hPa10 kmSE (140°)5.6 km/h
6:00 AM24 °C18 °C69 %1015.2 hPa10 kmVariable5.6 km/hPartly Cloudy
6:30 AM23 °C19 °C78 %1015.2 hPa10 kmVariable5.6 km/hPartly Cloudy
7:00 AM25 °C19 °C69 %1015.2 hPa10 kmSE (140°)1.9 km/hPartly Cloudy
7:30 AM26 °C20 °C69 %1016.3 hPa10 kmSSW (210°)5.6 km/hPartly Cloudy
8:00 AM27.8 °C18.9 °C50 %1016.3 hPa40.2 kmSouth (190°)3.5 km/hPartly Cloudy
8:00 AM28 °C19 °C58 %1016.3 hPa10 kmVariable1.9 km/hPartly Cloudy
8:30 AM28 °C20 °C62 %1016.3 hPa10 kmCalmPartly Cloudy
9:00 AM29 °C21 °C62 %1016.3 hPa10 kmNorth (10°)5.6 km/hPartly Cloudy
9:30 AM29 °C21 °C62 %1016.3 hPa10 kmNNW (330°)5.6 km/hScattered Clouds
10:00 AM29 °C22 °C66 %1015.2 hPa10 kmWest (270°)5.6 km/hScattered Clouds
10:30 AM30 °C22 °C62 %1015.2 hPa10 kmWest (280°)7.4 km/hScattered Clouds
11:00 AM30 °C21.7 °C53 %1015.6 hPa40.2 kmWest (260°)13 km/hScattered Clouds
11:00 AM30 °C22 °C62 %1015.2 hPa10 kmWest (260°)13 km/hMostly Cloudy
11:30 AM30 °C19 °C51 %1015.2 hPa10 kmWSW (250°)14.8 km/hMostly Cloudy
12:00 PM30 °C21 °C58 %1014.2 hPa10 kmSW (220°)13 km/hMostly Cloudy
12:30 PM31 °C20 °C52 %1014.2 hPa10 kmSW (230°)9.3 km/hMostly Cloudy
1:00 PM30 °C21 °C58 %1013.2 hPa10 kmWNW (290°)11.1 km/hMostly Cloudy
1:30 PM31 °C22 °C58 %1013.2 hPa10 kmWNW (290°)14.8 km/hMostly Cloudy
2:00 PM30.6 °C22.8 °C55 %1013.2 hPa40.2 kmWest (260°)32.3 km/hScattered Clouds
2:00 PM30 °C23 °C66 %1013.2 hPa10 kmWest (260°)16.7 km/hMostly Cloudy
2:30 PM30 °C22 °C62 %1012.2 hPa10 kmWSW (250°)13 km/hMostly Cloudy
3:00 PM31 °C23 °C62 %1012.2 hPa10 kmWSW (250°)7.4 km/hMostly Cloudy
3:30 PM31 °C23 °C62 %1012.2 hPa10 kmWest (280°)5.6 km/hMostly Cloudy
4:00 PM31 °C23 °C62 %1012.2 hPa10 kmWest (260°)5.6 km/hMostly Cloudy
4:30 PM31 °C24 °C66 %1012.2 hPa10 kmNNW (330°)5.6 km/hMostly Cloudy
5:00 PM30.6 °C21.7 °C50 %1012.9 hPa30.6 kmSW (230°)14.3 km/hScattered Clouds
5:00 PM31 °C22 °C58 %1012.2 hPa10 kmSW (230°)7.4 km/hMostly Cloudy
5:30 PM30 °C23 °C66 %1013.2 hPa10 kmWest (260°)11.1 km/hMostly Cloudy
6:00 PM30 °C22 °C62 %1013.2 hPa10 kmSW (230°)7.4 km/hMostly Cloudy
6:30 PM29 °C22 °C66 %1013.2 hPa10 kmVariable1.9 km/hMostly Cloudy
7:00 PM28 °C22 °C70 %1014.2 hPa10 kmEast (90°)5.6 km/hMostly Cloudy
7:30 PM28 °C22 °C70 %1014.2 hPa10 kmVariable1.9 km/hMostly Cloudy
8:00 PM28.3 °C22.2 °C63 %1014.9 hPa19.3 kmWest (280°)13 km/hScattered Clouds
8:00 PM28 °C22 °C70 %1014.2 hPa10 kmWest (280°)13 km/hMostly Cloudy
8:30 PM28 °C22 °C70 %1015.2 hPa10 kmSouth (190°)7.4 km/hMostly Cloudy
9:00 PM27 °C22 °C74 %1015.2 hPa10 kmSouth (190°)5.6 km/hMostly Cloudy
9:30 PM28 °C23 °C74 %1015.2 hPa10 kmNNW (340°)7.4 km/hMostly Cloudy
10:04 PM27 °C22 °C74 %1015.2 hPa10 kmEast (90°)7.4 km/hPartly Cloudy
10:30 PM27 °C22 °C74 %1015.2 hPa10 kmSouth (170°)7.4 km/hPartly Cloudy
11:00 PM26.7 °C21.7 °C66 %1014.9 hPa19.3 kmSouth (180°)21.6 km/hScattered Clouds
11:00 PM26 °C21 °C74 %1014.2 hPa10 kmSouth (180°)11.1 km/hPartly Cloudy
11:30 PM26 °C22 °C78 %1014.2 hPa10 kmSouth (180°)7.4 km/hPartly Cloudy
Hourly data recorded from NTAA, located 0 kilometers away from Papeete, French Polynesia







STORIES FROM OUR PARTNERS